ロニオス彗星

P/1999 RO28 ( LONEOS )

English version
Home page
Updated on June 12, 2026

---------------------------------------------------------------------

・ プロフィール

発見日 1999年 9月 7日
発見光度 18.4等
発見者 Lowell Observatory Near-Earth Object Search

・ 軌道要素

                    Epoch = 1999 Sept.19.0 TT
     T = 1999 Oct.  2.34428 TT        Peri. = 219.85987
     e = 0.6507913                    Node  = 148.45005 2000.0
     q = 1.2317607 AU                 Incl. =   8.19105
       a =  3.5272915 AU   n = 0.14877914   P =   6.62 years

・ 星図

・ 光度変化

        m1 = 20.5 + 5 logΔ + 10.0 log r

---------------------------------------------------------------------

軌道要素は、CBET 5702に掲載されたものです。
星図は StellaNavigator Ver.2.0 for Windows (アストロアーツ 編著 / アスキー出版局刊) で作成したものです。
光度グラフはComet for Windowsで作成したものです。

---------------------------------------------------------------------

Copyright(C) Seiichi Yoshida (comet@aerith.net). All rights reserved.